,,Stat6,,Stat2,,Stat8,,Stat9,,Stat10,,Wind1,,Wind1,
time,status,PA1M_AVG,status,PR1M_SUM,status,RH1M_AVG,status,SR1M_AVG,status,TA1M_AVG,status,W1dAve1m,status,W1sAve1m,
2009-02-12, 00:00:00,VALID,917.646,VALID,0,VALID,99.7701,VALID,0.0169808,VALID,19.0407,VALID,129,VALID,0,
2009-02-12, 00:01:00,VALID,917.632,VALID,0,VALID,99.7396,VALID,0.0509425,VALID,19.0175,VALID,129,VALID,0,
2009-02-12, 00:02:00,VALID,917.603,VALID,0,VALID,99.8502,VALID,0,VALID,18.9951,VALID,129,VALID,0,
2009-02-12, 00:03:00,VALID,917.589,VALID,0,VALID,99.9456,VALID,0.0339617,VALID,18.9886,VALID,129,VALID,0,
2009-02-12, 00:04:00,VALID,917.577,VALID,0,VALID,100,VALID,0.0339617,VALID,18.9724,VALID,129,VALID,0,
2009-02-12, 00:05:00,VALID,917.57,VALID,0,VALID,100,VALID,0,VALID,18.9661,VALID,129,VALID,0,
2009-02-12, 00:06:00,VALID,917.545,VALID,0,VALID,100,VALID,0,VALID,18.9367,VALID,129,VALID,0,
2009-02-12, 00:07:00,VALID,917.546,VALID,0,VALID,100,VALID,0.0169808,VALID,18.9137,VALID,142,VALID,0,
2009-02-12, 00:08:00,VALID,917.531,VALID,0,VALID,100,VALID,0.0339617,VALID,18.9167,VALID,151,VALID,0,
2009-02-12, 00:09:00,VALID,917.527,VALID,0,VALID,100,VALID,0.0169808,VALID,18.9302,VALID,157,VALID,0,
2009-02-12, 00:10:00,VALID,917.523,VALID,0,VALID,100,VALID,0,VALID,18.9529,VALID,158,VALID,0,
2009-02-12, 00:11:00,VALID,917.52,VALID,0,VALID,100,VALID,0.0509425,VALID,18.9654,VALID,158,VALID,0,
2009-02-12, 00:12:00,VALID,917.495,VALID,0,VALID,100,VALID,0,VALID,18.9983,VALID,160,VALID,0,
2009-02-12, 00:13:00,VALID,917.482,VALID,0,VALID,100,VALID,0.0169808,VALID,19.0011,VALID,164,VALID,0,
2009-02-12, 00:14:00,VALID,917.479,VALID,0,VALID,100,VALID,-0.0169808,VALID,19.0148,VALID,164,VALID,0,
2009-02-12, 00:15:00,VALID,917.469,VALID,0,VALID,100,VALID,0.0169808,VALID,19.0178,VALID,164,VALID,0.0459872,
2009-02-12, 00:16:00,VALID,917.462,VALID,0,VALID,100,VALID,0,VALID,19.0148,VALID,164,VALID,0,
2009-02-12, 00:17:00,VALID,917.449,VALID,0,VALID,100,VALID,0,VALID,19.005,VALID,167,VALID,0,
2009-02-12, 00:18:00,VALID,917.435,VALID,0,VALID,99.9939,VALID,0.0169808,VALID,19.0046,VALID,168,VALID,0,
2009-02-12, 00:19:00,VALID,917.433,VALID,0,VALID,99.8477,VALID,0,VALID,19.011,VALID,167,VALID,0,
2009-02-12, 00:20:00,VALID,917.411,VALID,0,VALID,99.6366,VALID,0.0339617,VALID,19.027,VALID,163,VALID,0,
2009-02-12, 00:21:00,VALID,917.39,VALID,0,VALID,99.395,VALID,0,VALID,19.04,VALID,166,VALID,0,
2009-02-12, 00:22:00,VALID,917.388,VALID,0,VALID,99.1674,VALID,0.0169808,VALID,19.0629,VALID,167,VALID,0,
2009-02-12, 00:23:00,VALID,917.38,VALID,0,VALID,98.9537,VALID,0,VALID,19.0634,VALID,168,VALID,0,
2009-02-12, 00:24:00,VALID,917.374,VALID,0,VALID,98.8596,VALID,0,VALID,19.0539,VALID,166,VALID,0,
2009-02-12, 00:25:00,VALID,917.371,VALID,0,VALID,98.8215,VALID,0,VALID,19.044,VALID,165,VALID,0,
2009-02-12, 00:26:00,VALID,917.353,VALID,0,VALID,98.8024,VALID,-0.0169808,VALID,19.0342,VALID,165,VALID,0,
2009-02-12, 00:27:00,VALID,917.34,VALID,0,VALID,98.7465,VALID,-0.0169808,VALID,19.032,VALID,165,VALID,0,
2009-02-12, 00:28:00,VALID,917.329,VALID,0,VALID,98.6905,VALID,-0.0169808,VALID,19.0148,VALID,165,VALID,0,
2009-02-12, 00:29:00,VALID,917.315,VALID,0,VALID,98.6918,VALID,-0.0339617,VALID,18.9958,VALID,165,VALID,0,
2009-02-12, 00:30:00,VALID,917.301,VALID,0,VALID,98.7655,VALID,-0.0339617,VALID,18.9791,VALID,165,VALID,0,
2009-02-12, 00:31:00,VALID,917.304,VALID,0,VALID,98.7579,VALID,0,VALID,18.9856,VALID,170,VALID,0,
2009-02-12, 00:32:00,VALID,917.297,VALID,0,VALID,98.721,VALID,0,VALID,18.9856,VALID,166,VALID,0,
2009-02-12, 00:33:00,VALID,917.287,VALID,0,VALID,98.7058,VALID,-0.0169808,VALID,18.9793,VALID,158,VALID,0,
2009-02-12, 00:34:00,VALID,917.271,VALID,0,VALID,98.6167,VALID,-0.0169808,VALID,18.9531,VALID,157,VALID,0,
2009-02-12, 00:35:00,VALID,917.255,VALID,0,VALID,98.7375,VALID,-0.0169808,VALID,18.9372,VALID,155,VALID,0,
2009-02-12, 00:36:00,VALID,917.251,VALID,0,VALID,98.8863,VALID,0,VALID,18.9112,VALID,150,VALID,0,
2009-02-12, 00:37:00,VALID,917.224,VALID,0,VALID,99.1852,VALID,-0.0339617,VALID,18.8788,VALID,150,VALID,0,
2009-02-12, 00:38:00,VALID,917.193,VALID,0,VALID,99.4611,VALID,0.0679233,VALID,18.8352,VALID,150,VALID,0,
2009-02-12, 00:39:00,VALID,917.194,VALID,0,VALID,99.6086,VALID,0.101885,VALID,18.8122,VALID,149,VALID,0,
2009-02-12, 00:40:00,VALID,917.169,VALID,0,VALID,99.7548,VALID,0.101885,VALID,18.7953,VALID,147,VALID,0,
2009-02-12, 00:41:00,VALID,917.153,VALID,0,VALID,99.8553,VALID,0.0849042,VALID,18.7765,VALID,146,VALID,0,
2009-02-12, 00:42:00,VALID,917.136,VALID,0,VALID,99.9779,VALID,0.101885,VALID,18.7596,VALID,136,VALID,0,
2009-02-12, 00:43:00,VALID,917.121,VALID,0,VALID,100,VALID,0.118866,VALID,18.7569,VALID,128,VALID,0,
2009-02-12, 00:44:00,VALID,917.102,VALID,0,VALID,100,VALID,0.101885,VALID,18.7506,VALID,128,VALID,0,
2009-02-12, 00:45:00,VALID,917.082,VALID,0,VALID,100,VALID,0.101885,VALID,18.7541,VALID,128,VALID,0,
2009-02-12, 00:46:00,VALID,917.061,VALID,0,VALID,100,VALID,0.0679233,VALID,18.7441,VALID,127,VALID,0,
2009-02-12, 00:47:00,VALID,917.034,VALID,0,VALID,100,VALID,0.0679233,VALID,18.7346,VALID,127,VALID,0,
2009-02-12, 00:48:00,VALID,917.016,VALID,0,VALID,100,VALID,0.0849042,VALID,18.7541,VALID,127,VALID,0,
2009-02-12, 00:49:00,VALID,917.014,VALID,0,VALID,100,VALID,0.101885,VALID,18.7668,VALID,127,VALID,0,
2009-02-12, 00:50:00,VALID,917.009,VALID,0,VALID,100,VALID,0.0849042,VALID,18.7698,VALID,147,VALID,0,
2009-02-12, 00:51:00,VALID,917.01,VALID,0,VALID,100,VALID,0.0679233,VALID,18.7698,VALID,170,VALID,0,
2009-02-12, 00:52:00,VALID,916.999,VALID,0,VALID,99.9619,VALID,0.0849042,VALID,18.7671,VALID,174,VALID,0,
2009-02-12, 00:53:00,VALID,916.988,VALID,0,VALID,100,VALID,-0.0679233,VALID,18.7592,VALID,171,VALID,0,
2009-02-12, 00:54:00,VALID,916.964,VALID,0,VALID,100,VALID,-0.101885,VALID,18.7599,VALID,164,VALID,0,
2009-02-12, 00:55:00,VALID,916.952,VALID,0,VALID,100,VALID,-0.0849042,VALID,18.747,VALID,160,VALID,0,
2009-02-12, 00:56:00,VALID,916.937,VALID,0,VALID,100,VALID,-0.0509425,VALID,18.7402,VALID,160,VALID,0,
2009-02-12, 00:57:00,VALID,916.932,VALID,0,VALID,100,VALID,-0.0849042,VALID,18.7273,VALID,160,VALID,0,
2009-02-12, 00:58:00,VALID,916.923,VALID,0,VALID,100,VALID,-0.118866,VALID,18.711,VALID,157,VALID,0,
2009-02-12, 00:59:00,VALID,916.907,VALID,0,VALID,100,VALID,-0.0679233,VALID,18.6983,VALID,147,VALID,0,
2009-02-12, 01:00:00,VALID,916.892,VALID,0,VALID,100,VALID,-0.101885,VALID,18.6754,VALID,145,VALID,0,
2009-02-12, 01:01:00,VALID,916.878,VALID,0,VALID,100,VALID,-0.101885,VALID,18.6689,VALID,145,VALID,0,
2009-02-12, 01:02:00,VALID,916.891,VALID,0,VALID,100,VALID,-0.101885,VALID,18.6596,VALID,145,VALID,0,
2009-02-12, 01:03:00,VALID,916.882,VALID,0,VALID,100,VALID,-0.118866,VALID,18.6204,VALID,145,VALID,0,
2009-02-12, 01:04:00,VALID,916.882,VALID,0,VALID,100,VALID,-0.118866,VALID,18.5913,VALID,145,VALID,0,
2009-02-12, 01:05:00,VALID,916.88,VALID,0,VALID,100,VALID,-0.101885,VALID,18.5394,VALID,145,VALID,0,
2009-02-12, 01:06:00,VALID,916.864,VALID,0,VALID,100,VALID,-0.101885,VALID,18.5067,VALID,145,VALID,0,
2009-02-12, 01:07:00,VALID,916.863,VALID,0,VALID,100,VALID,-0.101885,VALID,18.4745,VALID,145,VALID,0,
2009-02-12, 01:08:00,VALID,916.863,VALID,0,VALID,100,VALID,-0.101885,VALID,18.4451,VALID,145,VALID,0,
2009-02-12, 01:09:00,VALID,916.861,VALID,0,VALID,100,VALID,-0.0849042,VALID,18.4448,VALID,145,VALID,0,
2009-02-12, 01:10:00,VALID,916.848,VALID,0,VALID,100,VALID,-0.0679233,VALID,18.461,VALID,145,VALID,0,
2009-02-12, 01:11:00,VALID,916.848,VALID,0,VALID,100,VALID,-0.0679233,VALID,18.4678,VALID,145,VALID,0,
2009-02-12, 01:12:00,VALID,916.856,VALID,0,VALID,100,VALID,-0.101885,VALID,18.484,VALID,145,VALID,0,
2009-02-12, 01:13:00,VALID,916.865,VALID,0,VALID,100,VALID,-0.0849042,VALID,18.484,VALID,145,VALID,0,
2009-02-12, 01:14:00,VALID,916.868,VALID,0,VALID,100,VALID,-0.118866,VALID,18.471,VALID,145,VALID,0,
2009-02-12, 01:15:00,VALID,916.855,VALID,0,VALID,100,VALID,-0.101885,VALID,18.4615,VALID,145,VALID,0,
2009-02-12, 01:16:00,VALID,916.867,VALID,0,VALID,100,VALID,-0.101885,VALID,18.4548,VALID,145,VALID,0,
2009-02-12, 01:17:00,VALID,916.864,VALID,0,VALID,100,VALID,-0.0849042,VALID,18.4483,VALID,145,VALID,0,
2009-02-12, 01:18:00,VALID,916.866,VALID,0,VALID,100,VALID,-0.101885,VALID,18.4288,VALID,145,VALID,0,
2009-02-12, 01:19:00,VALID,916.871,VALID,0,VALID,100,VALID,-0.0849042,VALID,18.4061,VALID,145,VALID,0,
2009-02-12, 01:20:00,VALID,916.882,VALID,0,VALID,100,VALID,-0.118866,VALID,18.3966,VALID,145,VALID,0,
2009-02-12, 01:21:00,VALID,916.881,VALID,0,VALID,100,VALID,-0.118866,VALID,18.3934,VALID,145,VALID,0,
2009-02-12, 01:22:00,VALID,916.888,VALID,0,VALID,100,VALID,-0.0849042,VALID,18.3862,VALID,141,VALID,0,
2009-02-12, 01:23:00,VALID,916.886,VALID,0,VALID,100,VALID,0.0169808,VALID,18.3853,VALID,139,VALID,0,
2009-02-12, 01:24:00,VALID,916.871,VALID,0,VALID,100,VALID,0.0339617,VALID,18.3195,VALID,114,VALID,0,
2009-02-12, 01:25:00,VALID,916.876,VALID,0,VALID,100,VALID,0.0849042,VALID,18.3067,VALID,78,VALID,0,
2009-02-12, 01:26:00,VALID,916.868,VALID,0,VALID,100,VALID,0.0679233,VALID,18.2808,VALID,74,VALID,0,
2009-02-12, 01:27:00,VALID,916.862,VALID,0,VALID,100,VALID,0.0169808,VALID,18.2322,VALID,74,VALID,0,
2009-02-12, 01:28:00,VALID,916.868,VALID,0,VALID,100,VALID,0.0679233,VALID,18.1898,VALID,74,VALID,0,
2009-02-12, 01:29:00,VALID,916.872,VALID,0,VALID,100,VALID,0.0169808,VALID,18.1506,VALID,74,VALID,0,
2009-02-12, 01:30:00,VALID,916.87,VALID,0,VALID,100,VALID,0.0679233,VALID,18.1932,VALID,74,VALID,0,
2009-02-12, 01:31:00,VALID,916.868,VALID,0,VALID,100,VALID,0.0339617,VALID,18.2224,VALID,74,VALID,0,
2009-02-12, 01:32:00,VALID,916.857,VALID,0,VALID,100,VALID,0.0849042,VALID,18.2417,VALID,74,VALID,0,
2009-02-12, 01:33:00,VALID,916.863,VALID,0,VALID,100,VALID,0.0509425,VALID,18.2518,VALID,74,VALID,0,
2009-02-12, 01:34:00,VALID,916.871,VALID,0,VALID,100,VALID,0.0169808,VALID,18.2613,VALID,74,VALID,0,
2009-02-12, 01:35:00,VALID,916.859,VALID,0,VALID,100,VALID,0.0339617,VALID,18.2708,VALID,74,VALID,0,
2009-02-12, 01:36:00,VALID,916.849,VALID,0,VALID,100,VALID,0.0509425,VALID,18.2676,VALID,74,VALID,0,
2009-02-12, 01:37:00,VALID,916.832,VALID,0,VALID,100,VALID,0.0339617,VALID,18.2715,VALID,75,VALID,0,
2009-02-12, 01:38:00,VALID,916.825,VALID,0,VALID,100,VALID,-0.0679233,VALID,18.2787,VALID,75,VALID,0,
2009-02-12, 01:39:00,VALID,916.813,VALID,0,VALID,100,VALID,-0.0679233,VALID,18.2949,VALID,75,VALID,0,
2009-02-12, 01:40:00,VALID,916.794,VALID,0,VALID,100,VALID,-0.0509425,VALID,18.3014,VALID,75,VALID,0,
2009-02-12, 01:41:00,VALID,916.785,VALID,0,VALID,100,VALID,-0.0509425,VALID,18.2463,VALID,75,VALID,0,
2009-02-12, 01:42:00,VALID,916.787,VALID,0,VALID,100,VALID,-0.101885,VALID,18.1942,VALID,75,VALID,0,
2009-02-12, 01:43:00,VALID,916.767,VALID,0,VALID,100,VALID,-0.101885,VALID,18.1622,VALID,75,VALID,0,
2009-02-12, 01:44:00,VALID,916.741,VALID,0,VALID,100,VALID,-0.0339617,VALID,18.1427,VALID,74,VALID,0,
2009-02-12, 01:45:00,VALID,916.742,VALID,0,VALID,100,VALID,-0.0679233,VALID,18.1393,VALID,74,VALID,0,
2009-02-12, 01:46:00,VALID,916.746,VALID,0,VALID,100,VALID,-0.0849042,VALID,18.1812,VALID,74,VALID,0,
2009-02-12, 01:47:00,VALID,916.716,VALID,0,VALID,100,VALID,-0.0849042,VALID,18.2206,VALID,69,VALID,0,
2009-02-12, 01:48:00,VALID,916.702,VALID,0,VALID,100,VALID,-0.101885,VALID,18.2234,VALID,69,VALID,0,
2009-02-12, 01:49:00,VALID,916.709,VALID,0,VALID,100,VALID,-0.101885,VALID,18.2502,VALID,69,VALID,0,
2009-02-12, 01:50:00,VALID,916.708,VALID,0,VALID,100,VALID,-0.0849042,VALID,18.2335,VALID,69,VALID,0,
2009-02-12, 01:51:00,VALID,916.693,VALID,0,VALID,100,VALID,-0.101885,VALID,18.2076,VALID,69,VALID,0,
2009-02-12, 01:52:00,VALID,916.69,VALID,0,VALID,100,VALID,-0.101885,VALID,18.2139,VALID,69,VALID,0,
2009-02-12, 01:53:00,VALID,916.683,VALID,0,VALID,100,VALID,-0.0849042,VALID,18.247,VALID,69,VALID,0,
2009-02-12, 01:54:00,VALID,916.648,VALID,0,VALID,100,VALID,-0.0509425,VALID,18.2396,VALID,68,VALID,0,
2009-02-12, 01:55:00,VALID,916.628,VALID,0,VALID,99.9486,VALID,-0.0509425,VALID,18.2627,VALID,68,VALID,0,
2009-02-12, 01:56:00,VALID,916.619,VALID,0,VALID,99.7612,VALID,-0.0509425,VALID,18.3051,VALID,68,VALID,0,
2009-02-12, 01:57:00,VALID,916.608,VALID,0,VALID,99.6353,VALID,-0.101885,VALID,18.3443,VALID,68,VALID,0,
2009-02-12, 01:58:00,VALID,916.593,VALID,0,VALID,99.4318,VALID,-0.0849042,VALID,18.37,VALID,68,VALID,0,
2009-02-12, 01:59:00,VALID,916.573,VALID,0,VALID,99.1534,VALID,-0.101885,VALID,18.4024,VALID,68,VALID,0,
2009-02-12, 02:00:00,VALID,916.544,VALID,0,VALID,98.9474,VALID,-0.0849042,VALID,18.4251,VALID,68,VALID,0,
2009-02-12, 02:01:00,VALID,916.537,VALID,0,VALID,98.7312,VALID,-0.0509425,VALID,18.4309,VALID,41,VALID,0.107329,
2009-02-12, 02:02:00,VALID,916.534,VALID,0,VALID,98.6358,VALID,-0.0509425,VALID,18.4376,VALID,353,VALID,0.0270833,
2009-02-12, 02:03:00,VALID,916.513,VALID,0,VALID,98.5315,VALID,-0.0849042,VALID,18.4344,VALID,9,VALID,0,
2009-02-12, 02:04:00,VALID,916.52,VALID,0,VALID,98.3039,VALID,-0.0679233,VALID,18.3927,VALID,29,VALID,0,
2009-02-12, 02:05:00,VALID,916.523,VALID,0,VALID,98.2963,VALID,-0.101885,VALID,18.3568,VALID,29,VALID,0,
2009-02-12, 02:06:00,VALID,916.55,VALID,0,VALID,98.3472,VALID,-0.101885,VALID,18.3737,VALID,28,VALID,0,
2009-02-12, 02:07:00,VALID,916.536,VALID,0,VALID,98.4209,VALID,-0.0849042,VALID,18.3661,VALID,23,VALID,0,
2009-02-12, 02:08:00,VALID,916.54,VALID,0,VALID,98.5494,VALID,-0.0849042,VALID,18.399,VALID,23,VALID,0,
2009-02-12, 02:09:00,VALID,916.53,VALID,0,VALID,98.5659,VALID,-0.0849042,VALID,18.4406,VALID,23,VALID,0,
2009-02-12, 02:10:00,VALID,916.508,VALID,0,VALID,98.4502,VALID,-0.0509425,VALID,18.4504,VALID,24,VALID,0,
2009-02-12, 02:11:00,VALID,916.498,VALID,0,VALID,98.0954,VALID,-0.0679233,VALID,18.4214,VALID,34,VALID,0,
2009-02-12, 02:12:00,VALID,916.489,VALID,0,VALID,97.8996,VALID,-0.0849042,VALID,18.3566,VALID,35,VALID,0,
2009-02-12, 02:13:00,VALID,916.48,VALID,0,VALID,97.9949,VALID,-0.0679233,VALID,18.3209,VALID,35,VALID,0,
2009-02-12, 02:14:00,VALID,916.47,VALID,0,VALID,98.1666,VALID,-0.101885,VALID,18.3311,VALID,11,VALID,0,
2009-02-12, 02:15:00,VALID,916.461,VALID,0,VALID,98.2442,VALID,-0.101885,VALID,18.3473,VALID,302,VALID,0,
2009-02-12, 02:16:00,VALID,916.452,VALID,0,VALID,98.5265,VALID,-0.101885,VALID,18.3473,VALID,302,VALID,0,
2009-02-12, 02:17:00,VALID,916.437,VALID,0,VALID,98.4146,VALID,-0.101885,VALID,18.3533,VALID,14,VALID,0,
2009-02-12, 02:18:00,VALID,916.439,VALID,0,VALID,98.1857,VALID,-0.101885,VALID,18.3793,VALID,38,VALID,0,
2009-02-12, 02:19:00,VALID,916.429,VALID,0,VALID,97.8729,VALID,-0.101885,VALID,18.3665,VALID,48,VALID,0.323879,
2009-02-12, 02:20:00,VALID,916.422,VALID,0,VALID,97.6338,VALID,-0.101885,VALID,18.3471,VALID,41,VALID,0,
2009-02-12, 02:21:00,VALID,916.433,VALID,0,VALID,97.3871,VALID,-0.101885,VALID,18.3047,VALID,41,VALID,0,
2009-02-12, 02:22:00,VALID,916.444,VALID,0,VALID,97.4532,VALID,-0.0849042,VALID,18.2664,VALID,41,VALID,0,
2009-02-12, 02:23:00,VALID,916.441,VALID,0,VALID,97.5931,VALID,0,VALID,18.2361,VALID,41,VALID,0,
2009-02-12, 02:24:00,VALID,916.438,VALID,0,VALID,97.6948,VALID,0,VALID,18.2259,VALID,36,VALID,0.298242,
2009-02-12, 02:25:00,VALID,916.448,VALID,0,VALID,97.5779,VALID,0,VALID,18.2298,VALID,29,VALID,0.521763,
2009-02-12, 02:26:00,VALID,916.436,VALID,0,VALID,97.5435,VALID,-0.0169808,VALID,18.2391,VALID,29,VALID,0,
2009-02-12, 02:27:00,VALID,916.434,VALID,0,VALID,97.4214,VALID,0,VALID,18.2553,VALID,29,VALID,0,
2009-02-12, 02:28:00,VALID,916.422,VALID,0,VALID,97.3909,VALID,0,VALID,18.2773,VALID,29,VALID,0,
2009-02-12, 02:29:00,VALID,916.426,VALID,0,VALID,97.3083,VALID,0,VALID,18.2808,VALID,29,VALID,0,
2009-02-12, 02:30:00,VALID,916.419,VALID,0,VALID,97.3235,VALID,0,VALID,18.2903,VALID,29,VALID,0,
2009-02-12, 02:31:00,VALID,916.406,VALID,0,VALID,97.321,VALID,0.0169808,VALID,18.2611,VALID,29,VALID,0,
2009-02-12, 02:32:00,VALID,916.41,VALID,0,VALID,97.3223,VALID,0.0169808,VALID,18.2352,VALID,29,VALID,0,
2009-02-12, 02:33:00,VALID,916.414,VALID,0,VALID,97.3134,VALID,0,VALID,18.2227,VALID,29,VALID,0,
2009-02-12, 02:34:00,VALID,916.427,VALID,0,VALID,97.4176,VALID,0,VALID,18.1898,VALID,29,VALID,0,
2009-02-12, 02:35:00,VALID,916.422,VALID,0,VALID,97.5079,VALID,0.0509425,VALID,18.1898,VALID,29,VALID,0,
2009-02-12, 02:36:00,VALID,916.427,VALID,0,VALID,97.5219,VALID,0.0169808,VALID,18.2125,VALID,347,VALID,0,
2009-02-12, 02:37:00,VALID,916.417,VALID,0,VALID,97.4087,VALID,0.0169808,VALID,18.2322,VALID,347,VALID,0,
2009-02-12, 02:38:00,VALID,916.413,VALID,0,VALID,97.3248,VALID,-0.0169808,VALID,18.2748,VALID,349,VALID,0,
2009-02-12, 02:39:00,VALID,916.422,VALID,0,VALID,97.2065,VALID,0,VALID,18.3162,VALID,30,VALID,0.084484,
2009-02-12, 02:40:00,VALID,916.419,VALID,0,VALID,96.9331,VALID,0.0169808,VALID,18.3517,VALID,28,VALID,0.018821,
2009-02-12, 02:41:00,VALID,916.431,VALID,0,VALID,96.82,VALID,0.0339617,VALID,18.3549,VALID,26,VALID,0,
2009-02-12, 02:42:00,VALID,916.438,VALID,0,VALID,96.9166,VALID,0,VALID,18.3549,VALID,17,VALID,0,
2009-02-12, 02:43:00,VALID,916.434,VALID,0,VALID,96.8975,VALID,0,VALID,18.3848,VALID,7,VALID,0,
2009-02-12, 02:44:00,VALID,916.45,VALID,0,VALID,96.778,VALID,0,VALID,18.4172,VALID,5,VALID,0,
2009-02-12, 02:45:00,VALID,916.474,VALID,0,VALID,96.628,VALID,0.0169808,VALID,18.443,VALID,8,VALID,0,
2009-02-12, 02:46:00,VALID,916.483,VALID,0,VALID,96.5389,VALID,0.0169808,VALID,18.4657,VALID,8,VALID,0,
2009-02-12, 02:47:00,VALID,916.489,VALID,0,VALID,96.352,VALID,0,VALID,18.5046,VALID,8,VALID,0,
2009-02-12, 02:48:00,VALID,916.495,VALID,0,VALID,96.188,VALID,0,VALID,18.5273,VALID,8,VALID,0,
2009-02-12, 02:49:00,VALID,916.495,VALID,0,VALID,95.9591,VALID,0.0169808,VALID,18.5562,VALID,13,VALID,0,
2009-02-12, 02:50:00,VALID,916.478,VALID,0,VALID,95.9209,VALID,0,VALID,18.6278,VALID,18,VALID,0,
2009-02-12, 02:51:00,VALID,916.493,VALID,0,VALID,95.6908,VALID,0,VALID,18.6438,VALID,18,VALID,0,
2009-02-12, 02:52:00,VALID,916.496,VALID,0,VALID,95.6247,VALID,0.0169808,VALID,18.6575,VALID,18,VALID,0,
2009-02-12, 02:53:00,VALID,916.499,VALID,0,VALID,95.4492,VALID,-0.0679233,VALID,18.6577,VALID,18,VALID,0,
2009-02-12, 02:54:00,VALID,916.508,VALID,0,VALID,95.5611,VALID,-0.101885,VALID,18.7013,VALID,18,VALID,0,
2009-02-12, 02:55:00,VALID,916.503,VALID,0,VALID,95.6819,VALID,-0.135847,VALID,18.6976,VALID,18,VALID,0,
2009-02-12, 02:56:00,VALID,916.515,VALID,0,VALID,95.776,VALID,-0.101885,VALID,18.6714,VALID,18,VALID,0,
2009-02-12, 02:57:00,VALID,916.522,VALID,0,VALID,95.9044,VALID,-0.0679233,VALID,18.6355,VALID,18,VALID,0,
2009-02-12, 02:58:00,VALID,916.516,VALID,0,VALID,95.7785,VALID,-0.0849042,VALID,18.5966,VALID,18,VALID,0,
2009-02-12, 02:59:00,VALID,916.525,VALID,0,VALID,95.8078,VALID,-0.0849042,VALID,18.5801,VALID,18,VALID,0,
2009-02-12, 03:00:00,VALID,916.525,VALID,0,VALID,95.8981,VALID,-0.101885,VALID,18.5936,VALID,18,VALID,0,
2009-02-12, 03:01:00,VALID,916.513,VALID,0,VALID,95.8129,VALID,-0.118866,VALID,18.5838,VALID,18,VALID,0,
2009-02-12, 03:02:00,VALID,916.511,VALID,0,VALID,95.7162,VALID,-0.118866,VALID,18.5801,VALID,17,VALID,0,
2009-02-12, 03:03:00,VALID,916.481,VALID,0,VALID,95.6043,VALID,-0.101885,VALID,18.5905,VALID,17,VALID,0.03125,
2009-02-12, 03:04:00,VALID,916.474,VALID,0,VALID,95.5357,VALID,-0.0849042,VALID,18.5836,VALID,17,VALID,0.197852,
2009-02-12, 03:05:00,VALID,916.456,VALID,0,VALID,95.5522,VALID,-0.101885,VALID,18.5908,VALID,17,VALID,0,
2009-02-12, 03:06:00,VALID,916.426,VALID,0,VALID,95.6793,VALID,-0.101885,VALID,18.5771,VALID,17,VALID,0,
2009-02-12, 03:07:00,VALID,916.408,VALID,0,VALID,95.7582,VALID,-0.0849042,VALID,18.5609,VALID,17,VALID,0,
2009-02-12, 03:08:00,VALID,916.375,VALID,0,VALID,95.7747,VALID,-0.0169808,VALID,18.5569,VALID,17,VALID,0,
2009-02-12, 03:09:00,VALID,916.361,VALID,0,VALID,95.9922,VALID,0.0339617,VALID,18.5467,VALID,20,VALID,0.0113467,
2009-02-12, 03:10:00,VALID,916.347,VALID,0,VALID,96.2185,VALID,0,VALID,18.5701,VALID,29,VALID,0.522222,
2009-02-12, 03:11:00,VALID,916.336,VALID,0,VALID,96.3215,VALID,0,VALID,18.5829,VALID,28,VALID,0,
2009-02-12, 03:12:00,VALID,916.326,VALID,0,VALID,96.2834,VALID,0.0169808,VALID,18.5634,VALID,28,VALID,0,
2009-02-12, 03:13:00,VALID,916.319,VALID,0,VALID,96.3698,VALID,0.0169808,VALID,18.54,VALID,28,VALID,0,
2009-02-12, 03:14:00,VALID,916.315,VALID,0,VALID,96.4995,VALID,0.0169808,VALID,18.5305,VALID,27,VALID,0,
2009-02-12, 03:15:00,VALID,916.309,VALID,0,VALID,96.6547,VALID,0.0339617,VALID,18.5145,VALID,27,VALID,0,
2009-02-12, 03:16:00,VALID,916.333,VALID,0,VALID,96.7856,VALID,0,VALID,18.5111,VALID,26,VALID,0,
2009-02-12, 03:17:00,VALID,916.323,VALID,0,VALID,96.7933,VALID,0.0169808,VALID,18.5206,VALID,26,VALID,0,
2009-02-12, 03:18:00,VALID,916.333,VALID,0,VALID,96.7984,VALID,0.0169808,VALID,18.531,VALID,26,VALID,0,
2009-02-12, 03:19:00,VALID,916.318,VALID,0,VALID,96.7856,VALID,0.0169808,VALID,18.5238,VALID,26,VALID,0,
2009-02-12, 03:20:00,VALID,916.317,VALID,0,VALID,96.7488,VALID,0.0169808,VALID,18.5305,VALID,26,VALID,0,
2009-02-12, 03:21:00,VALID,916.323,VALID,0,VALID,96.6419,VALID,0,VALID,18.5303,VALID,26,VALID,0,
2009-02-12, 03:22:00,VALID,916.332,VALID,0,VALID,96.5351,VALID,-0.0169808,VALID,18.5303,VALID,29,VALID,0,
2009-02-12, 03:23:00,VALID,916.333,VALID,0,VALID,96.5008,VALID,-0.0679233,VALID,18.5509,VALID,29,VALID,0,
2009-02-12, 03:24:00,VALID,916.34,VALID,0,VALID,96.4054,VALID,-0.101885,VALID,18.5811,VALID,29,VALID,0,
2009-02-12, 03:25:00,VALID,916.334,VALID,0,VALID,96.2973,VALID,-0.118866,VALID,18.597,VALID,29,VALID,0,
2009-02-12, 03:26:00,VALID,916.343,VALID,0,VALID,96.202,VALID,-0.0849042,VALID,18.6135,VALID,35,VALID,0,
2009-02-12, 03:27:00,VALID,916.341,VALID,0,VALID,96.1104,VALID,-0.101885,VALID,18.6295,VALID,39,VALID,0,
2009-02-12, 03:28:00,VALID,916.356,VALID,0,VALID,95.9794,VALID,-0.0849042,VALID,18.639,VALID,37,VALID,0,
2009-02-12, 03:29:00,VALID,916.359,VALID,0,VALID,95.912,VALID,-0.101885,VALID,18.6322,VALID,35,VALID,0,
2009-02-12, 03:30:00,VALID,916.37,VALID,0,VALID,95.8892,VALID,-0.101885,VALID,18.6489,VALID,38,VALID,0,
2009-02-12, 03:31:00,VALID,916.359,VALID,0,VALID,95.8624,VALID,-0.101885,VALID,18.6487,VALID,34,VALID,0,
2009-02-12, 03:32:00,VALID,916.354,VALID,0,VALID,95.9502,VALID,-0.101885,VALID,18.6357,VALID,23,VALID,0,
2009-02-12, 03:33:00,VALID,916.362,VALID,0,VALID,96.0201,VALID,-0.0679233,VALID,18.6487,VALID,25,VALID,0,
2009-02-12, 03:34:00,VALID,916.361,VALID,0,VALID,96.0901,VALID,-0.101885,VALID,18.6677,VALID,30,VALID,0.0744913,
2009-02-12, 03:35:00,VALID,916.366,VALID,0,VALID,96.0087,VALID,-0.0849042,VALID,18.7036,VALID,24,VALID,0.126674,
2009-02-12, 03:36:00,VALID,916.385,VALID,0,VALID,95.9222,VALID,-0.0679233,VALID,18.7527,VALID,25,VALID,0.126598,
2009-02-12, 03:37:00,VALID,916.385,VALID,0,VALID,95.7658,VALID,-0.135847,VALID,18.8114,VALID,24,VALID,0.0701265,
2009-02-12, 03:38:00,VALID,916.383,VALID,0,VALID,95.5166,VALID,-0.0849042,VALID,18.8628,VALID,19,VALID,0.388808,
2009-02-12, 03:39:00,VALID,916.397,VALID,0,VALID,95.1224,VALID,-0.118866,VALID,18.9117,VALID,5,VALID,1.40625,
2009-02-12, 03:40:00,VALID,916.415,VALID,0,VALID,94.8541,VALID,-0.101885,VALID,18.9701,VALID,13,VALID,1.00996,
2009-02-12, 03:41:00,VALID,916.419,VALID,0,VALID,94.8503,VALID,-0.118866,VALID,19.002,VALID,22,VALID,0.250521,
2009-02-12, 03:42:00,VALID,916.421,VALID,0,VALID,94.9189,VALID,-0.0849042,VALID,19.0153,VALID,27,VALID,0.216933,
2009-02-12, 03:43:00,VALID,916.427,VALID,0,VALID,95.0728,VALID,-0.0679233,VALID,19.0118,VALID,20,VALID,0.368096,
2009-02-12, 03:44:00,VALID,916.413,VALID,0,VALID,95.3246,VALID,-0.0849042,VALID,18.999,VALID,8,VALID,0,
2009-02-12, 03:45:00,VALID,916.401,VALID,0,VALID,95.5827,VALID,-0.0849042,VALID,18.9865,VALID,20,VALID,0.159884,
2009-02-12, 03:46:00,VALID,916.404,VALID,0,VALID,95.7073,VALID,-0.0509425,VALID,18.9369,VALID,22,VALID,0,
2009-02-12, 03:47:00,VALID,916.408,VALID,0,VALID,95.7213,VALID,-0.0849042,VALID,18.9372,VALID,22,VALID,0,